| time (UTC) | temp F | wind direction | speed MPH | gust MPH | rain 1hr in | rain 24hr in | rain mn in | humidity % | barometer mb |
| 20260906180057 | 86 | 131 | 5.0 | 11.0 | 0.00 | 0.00 | 0.00 | 59 | 1012.9 |
| 20260906175510 | 86 | 119 | 6.0 | 11.0 | 0.00 | 0.00 | 0.00 | 59 | 1012.8 |
| 20260906175016 | 85 | 118 | 7.0 | 11.0 | 0.00 | 0.00 | 0.00 | 59 | 1012.9 |
| 20260906174527 | 85 | 124 | 6.0 | 11.0 | 0.00 | 0.00 | 0.00 | 59 | 1013.0 |
| 20260906174037 | 84 | 124 | 4.0 | 7.0 | 0.00 | 0.00 | 0.00 | 60 | 1013.1 |
| 20260906173537 | 83 | 110 | 5.0 | 8.0 | 0.00 | 0.00 | 0.00 | 60 | 1013.2 |
| 20260906173050 | 83 | 124 | 6.0 | 8.0 | 0.00 | 0.00 | 0.00 | 60 | 1013.3 |
| 20260906172559 | 83 | 87 | 5.0 | 8.0 | 0.00 | 0.00 | 0.00 | 60 | 1013.2 |
| 20260906172005 | 82 | 96 | 4.0 | 7.0 | 0.00 | 0.00 | 0.00 | 60 | 1013.4 |
| 20260906171526 | 82 | 117 | 3.0 | 7.0 | 0.00 | 0.00 | 0.00 | 61 | 1013.5 |
| 20260906171027 | 82 | 111 | 3.0 | 8.0 | 0.00 | 0.00 | 0.00 | 61 | 1013.4 |
| 20260906170537 | 82 | 122 | 4.0 | 8.0 | 0.00 | 0.00 | 0.00 | 61 | 1013.6 |
| 20260906170028 | 81 | 116 | 4.0 | 7.0 | 0.00 | 0.00 | 0.00 | 61 | 1013.5 |
| 20260906165523 | 81 | 120 | 4.0 | 6.0 | 0.00 | 0.00 | 0.00 | 61 | 1013.5 |
| 20260906165036 | 81 | 130 | 3.0 | 9.0 | 0.00 | 0.00 | 0.00 | 61 | 1013.7 |
| 20260906164546 | 81 | 121 | 5.0 | 7.0 | 0.00 | 0.00 | 0.00 | 61 | 1013.7 |
| 20260906164056 | 81 | 125 | 3.0 | 6.0 | 0.00 | 0.00 | 0.00 | 61 | 1013.7 |
| 20260906163505 | 81 | 126 | 2.0 | 4.0 | 0.00 | 0.00 | 0.00 | 62 | 1013.8 |
| 20260906163045 | 81 | 127 | 2.0 | 4.0 | 0.00 | 0.00 | 0.00 | 61 | 1013.9 |
| 20260906162548 | 80 | 143 | 0.0 | 0.0 | 0.00 | 0.00 | 0.00 | 62 | 1013.9 |
| 20260906162055 | 80 | 148 | 0.0 | 0.0 | 0.00 | 0.00 | 0.00 | 62 | 1014.0 |
| 20260906161513 | 80 | 148 | 0.0 | 0.0 | 0.00 | 0.00 | 0.00 | 62 | 1014.0 |
| 20260906161012 | 80 | 118 | 0.0 | 2.0 | 0.00 | 0.00 | 0.00 | 63 | 1013.9 |
| 20260906160524 | 80 | 236 | 0.0 | 3.0 | 0.00 | 0.00 | 0.00 | 63 | 1014.0 |
| 20260906160109 | 79 | 126 | 0.0 | 2.0 | 0.00 | 0.00 | 0.00 | 63 | 1013.9 |
| 20260906155509 | 79 | 229 | 0.0 | 8.0 | 0.00 | 0.00 | 0.00 | 63 | 1014.1 |
| 20260906155020 | 79 | 222 | 0.0 | 11.0 | 0.00 | 0.00 | 0.00 | 63 | 1014.1 |
| 20260906154531 | 79 | 266 | 6.0 | 11.0 | 0.00 | 0.00 | 0.00 | 63 | 1014.6 |
| 20260906154046 | 80 | 257 | 5.0 | 8.0 | 0.00 | 0.00 | 0.00 | 62 | 1014.3 |
| 20260906153545 | 80 | 190 | 4.0 | 9.0 | 0.00 | 0.00 | 0.00 | 63 | 1013.8 |
| 20260906153030 | 80 | 154 | 5.0 | 9.0 | 0.00 | 0.00 | 0.00 | 63 | 1013.6 |
| 20260906152538 | 80 | 131 | 5.0 | 9.0 | 0.00 | 0.00 | 0.00 | 63 | 1013.5 |
| 20260906152047 | 79 | 116 | 5.0 | 10.0 | 0.00 | 0.00 | 0.00 | 63 | 1013.4 |
| 20260906151559 | 79 | 131 | 5.0 | 11.0 | 0.00 | 0.00 | 0.00 | 64 | 1013.4 |
| 20260906151013 | 79 | 89 | 6.0 | 11.0 | 0.00 | 0.00 | 0.00 | 63 | 1013.4 |
| 20260906150521 | 79 | 98 | 6.0 | 12.0 | 0.00 | 0.00 | 0.00 | 64 | 1013.5 |
| 20260906150041 | 79 | 126 | 7.0 | 13.0 | 0.00 | 0.00 | 0.00 | 64 | 1013.5 |
| 20260906145547 | 79 | 98 | 8.0 | 13.0 | 0.00 | 0.00 | 0.00 | 64 | 1013.5 |
| 20260906145057 | 79 | 128 | 7.0 | 13.0 | 0.00 | 0.00 | 0.00 | 64 | 1013.4 |
| 20260906144534 | 79 | 121 | 10.0 | 17.0 | 0.00 | 0.00 | 0.00 | 64 | 1013.4 |
| 20260906144043 | 79 | 134 | 8.0 | 13.0 | 0.00 | 0.00 | 0.00 | 65 | 1013.3 |
| 20260906143557 | 78 | 131 | 9.0 | 16.0 | 0.00 | 0.00 | 0.00 | 66 | 1013.4 |
| 20260906143013 | 78 | 109 | 10.0 | 16.0 | 0.00 | 0.00 | 0.00 | 66 | 1013.2 |
| 20260906142521 | 78 | 113 | 11.0 | 16.0 | 0.00 | 0.00 | 0.00 | 66 | 1013.2 |
| 20260906142030 | 78 | 113 | 10.0 | 16.0 | 0.00 | 0.00 | 0.00 | 67 | 1013.3 |
| 20260906141514 | 78 | 133 | 9.0 | 16.0 | 0.00 | 0.00 | 0.00 | 67 | 1013.4 |
| 20260906141022 | 78 | 125 | 10.0 | 15.0 | 0.00 | 0.00 | 0.00 | 68 | 1013.5 |
| 20260906140531 | 78 | 124 | 9.0 | 15.0 | 0.00 | 0.00 | 0.00 | 68 | 1013.5 |
| 20260906140043 | 78 | 123 | 9.0 | 16.0 | 0.00 | 0.00 | 0.00 | 69 | 1013.5 |
| 20260906135558 | 77 | 117 | 11.0 | 16.0 | 0.00 | 0.00 | 0.00 | 69 | 1013.6 |
| 20260906135003 | 77 | 86 | 10.0 | 14.0 | 0.00 | 0.00 | 0.00 | 69 | 1013.6 |
| 20260906134554 | 77 | 109 | 9.0 | 14.0 | 0.00 | 0.00 | 0.00 | 70 | 1013.7 |
| 20260906134057 | 77 | 124 | 9.0 | 14.0 | 0.00 | 0.00 | 0.00 | 70 | 1013.7 |
| 20260906133509 | 77 | 110 | 10.0 | 14.0 | 0.00 | 0.00 | 0.00 | 70 | 1013.7 |
| 20260906133026 | 77 | 131 | 9.0 | 14.0 | 0.00 | 0.00 | 0.00 | 70 | 1013.7 |
| 20260906132526 | 77 | 129 | 7.0 | 14.0 | 0.00 | 0.00 | 0.00 | 71 | 1013.6 |
| 20260906132035 | 77 | 103 | 9.0 | 14.0 | 0.00 | 0.00 | 0.00 | 72 | 1013.5 |
| 20260906131517 | 77 | 141 | 8.0 | 13.0 | 0.00 | 0.00 | 0.00 | 72 | 1013.6 |
| 20260906131023 | 76 | 139 | 9.0 | 13.0 | 0.00 | 0.00 | 0.00 | 73 | 1013.6 |
| 20260906130535 | 76 | 110 | 7.0 | 14.0 | 0.00 | 0.00 | 0.00 | 73 | 1013.5 |
| 20260906130052 | 76 | 124 | 8.0 | 14.0 | 0.00 | 0.00 | 0.00 | 73 | 1013.5 |
| 20260906125501 | 76 | 116 | 8.0 | 13.0 | 0.00 | 0.00 | 0.00 | 73 | 1013.5 |
| 20260906125009 | 76 | 98 | 9.0 | 12.0 | 0.00 | 0.00 | 0.00 | 73 | 1013.4 |
| 20260906124519 | 76 | 117 | 8.0 | 12.0 | 0.00 | 0.00 | 0.00 | 73 | 1013.4 |
| 20260906124028 | 76 | 119 | 6.0 | 12.0 | 0.00 | 0.00 | 0.00 | 73 | 1013.3 |
| 20260906123540 | 76 | 108 | 6.0 | 13.0 | 0.00 | 0.00 | 0.00 | 73 | 1013.3 |
| 20260906123010 | 76 | 104 | 8.0 | 13.0 | 0.00 | 0.00 | 0.00 | 73 | 1013.2 |
| 20260906122519 | 75 | 103 | 6.0 | 10.0 | 0.00 | 0.00 | 0.00 | 74 | 1013.2 |
| 20260906122026 | 75 | 97 | 7.0 | 10.0 | 0.00 | 0.00 | 0.00 | 74 | 1013.2 |
| 20260906121539 | 75 | 131 | 6.0 | 10.0 | 0.00 | 0.00 | 0.00 | 74 | 1013.1 |
| 20260906121048 | 75 | 115 | 6.0 | 9.0 | 0.00 | 0.00 | 0.00 | 73 | 1013.1 |
| 20260906120554 | 75 | 116 | 6.0 | 9.0 | 0.00 | 0.00 | 0.00 | 73 | 1013.1 |
| 20260906120036 | 75 | 110 | 5.0 | 10.0 | 0.00 | 0.00 | 0.00 | 73 | 1013.0 |
| 20260906115543 | 75 | 112 | 7.0 | 10.0 | 0.00 | 0.00 | 0.00 | 73 | 1012.9 |
| 20260906115055 | 75 | 105 | 6.0 | 8.0 | 0.00 | 0.00 | 0.00 | 73 | 1012.8 |
| 20260906114510 | 75 | 101 | 6.0 | 9.0 | 0.00 | 0.00 | 0.00 | 73 | 1012.9 |
| 20260906114013 | 75 | 93 | 6.0 | 9.0 | 0.00 | 0.00 | 0.00 | 73 | 1012.8 |
| 20260906113524 | 75 | 113 | 5.0 | 8.0 | 0.00 | 0.00 | 0.00 | 73 | 1012.7 |
| 20260906113059 | 75 | 97 | 4.0 | 8.0 | 0.00 | 0.00 | 0.00 | 73 | 1012.8 |
| 20260906113009 | 75 | 107 | 4.0 | 8.0 | 0.00 | 0.00 | 0.00 | 73 | 1012.8 |
| 20260906112513 | 75 | 94 | 3.0 | 6.0 | 0.00 | 0.00 | 0.00 | 73 | 1012.8 |
| 20260906112032 | 75 | 102 | 3.0 | 7.0 | 0.00 | 0.00 | 0.00 | 73 | 1012.7 |
| 20260906111540 | 75 | 101 | 4.0 | 7.0 | 0.00 | 0.00 | 0.00 | 73 | 1012.7 |
| 20260906111045 | 75 | 110 | 5.0 | 7.0 | 0.00 | 0.00 | 0.00 | 73 | 1012.6 |
| 20260906110552 | 75 | 94 | 4.0 | 7.0 | 0.00 | 0.00 | 0.00 | 73 | 1012.5 |
| 20260906110034 | 75 | 94 | 4.0 | 8.0 | 0.00 | 0.00 | 0.00 | 73 | 1012.5 |
| 20260906105537 | 75 | 103 | 4.0 | 8.0 | 0.00 | 0.00 | 0.00 | 73 | 1012.5 |
| 20260906105046 | 75 | 105 | 5.0 | 7.0 | 0.00 | 0.00 | 0.00 | 73 | 1012.5 |
| 20260906104506 | 75 | 109 | 3.0 | 5.0 | 0.00 | 0.00 | 0.00 | 73 | 1012.4 |
| 20260906104009 | 75 | 127 | 2.0 | 4.0 | 0.00 | 0.00 | 0.00 | 73 | 1012.4 |
| 20260906103518 | 75 | 105 | 1.0 | 7.0 | 0.00 | 0.00 | 0.00 | 73 | 1012.5 |
| 20260906103051 | 75 | 121 | 3.0 | 7.0 | 0.00 | 0.00 | 0.00 | 73 | 1012.4 |
| 20260906102559 | 75 | 110 | 4.0 | 6.0 | 0.00 | 0.00 | 0.00 | 73 | 1012.4 |
| 20260906102005 | 75 | 124 | 4.0 | 8.0 | 0.00 | 0.00 | 0.00 | 73 | 1012.4 |
| 20260906101531 | 75 | 110 | 4.0 | 8.0 | 0.00 | 0.00 | 0.00 | 73 | 1012.3 |
| 20260906101030 | 75 | 117 | 4.0 | 8.0 | 0.00 | 0.00 | 0.00 | 73 | 1012.3 |
| 20260906100545 | 75 | 103 | 3.0 | 7.0 | 0.00 | 0.00 | 0.00 | 73 | 1012.2 |
| 20260906100049 | 75 | 103 | 3.0 | 6.0 | 0.00 | 0.00 | 0.00 | 73 | 1012.1 |
| 20260906095559 | 75 | 121 | 3.0 | 6.0 | 0.00 | 0.00 | 0.00 | 73 | 1012.1 |
| 20260906095006 | 75 | 103 | 3.0 | 5.0 | 0.00 | 0.00 | 0.00 | 73 | 1012.1 |
| 20260906094519 | 75 | 103 | 3.0 | 5.0 | 0.00 | 0.00 | 0.00 | 73 | 1012.1 |
| 20260906094025 | 75 | 102 | 3.0 | 5.0 | 0.00 | 0.00 | 0.00 | 73 | 1012.2 |
| 20260906093535 | 75 | 110 | 3.0 | 4.0 | 0.00 | 0.00 | 0.00 | 72 | 1012.2 |
| 20260906093017 | 75 | 92 | 1.0 | 4.0 | 0.00 | 0.00 | 0.00 | 72 | 1012.3 |
| 20260906092523 | 75 | 94 | 1.0 | 3.0 | 0.00 | 0.00 | 0.00 | 71 | 1012.3 |
| 20260906092035 | 75 | 89 | 0.0 | 1.0 | 0.00 | 0.00 | 0.00 | 69 | 1012.3 |
| 20260906091546 | 76 | 96 | 0.0 | 1.0 | 0.00 | 0.00 | 0.00 | 69 | 1012.3 |
| 20260906091057 | 76 | 98 | 0.0 | 2.0 | 0.00 | 0.00 | 0.00 | 68 | 1012.4 |
| 20260906090505 | 76 | 103 | 0.0 | 2.0 | 0.00 | 0.00 | 0.00 | 68 | 1012.3 |
| 20260906090027 | 76 | 110 | 0.0 | 3.0 | 0.00 | 0.00 | 0.00 | 68 | 1012.4 |
| 20260906085524 | 76 | 103 | 0.0 | 6.0 | 0.00 | 0.00 | 0.00 | 68 | 1012.4 |
| 20260906085039 | 76 | 104 | 3.0 | 6.0 | 0.00 | 0.00 | 0.00 | 68 | 1012.4 |
| 20260906084547 | 76 | 102 | 2.0 | 5.0 | 0.00 | 0.00 | 0.00 | 68 | 1012.3 |
| 20260906084053 | 76 | 111 | 3.0 | 7.0 | 0.00 | 0.00 | 0.00 | 68 | 1012.3 |
| 20260906083505 | 76 | 134 | 4.0 | 8.0 | 0.00 | 0.00 | 0.00 | 67 | 1012.2 |
| 20260906083018 | 76 | 113 | 4.0 | 8.0 | 0.00 | 0.00 | 0.00 | 67 | 1012.1 |
| 20260906082527 | 77 | 126 | 4.0 | 9.0 | 0.00 | 0.00 | 0.00 | 67 | 1012.1 |
| 20260906082037 | 77 | 127 | 5.0 | 9.0 | 0.00 | 0.00 | 0.00 | 67 | 1012.0 |
| 20260906081544 | 77 | 116 | 6.0 | 12.0 | 0.00 | 0.00 | 0.00 | 67 | 1012.0 |
| 20260906081056 | 77 | 123 | 6.0 | 12.0 | 0.00 | 0.00 | 0.00 | 67 | 1012.0 |
| 20260906080502 | 77 | 108 | 6.0 | 10.0 | 0.00 | 0.00 | 0.00 | 67 | 1012.0 |
| 20260906080042 | 77 | 138 | 6.0 | 10.0 | 0.00 | 0.00 | 0.00 | 67 | 1012.0 |
| 20260906075545 | 77 | 133 | 6.0 | 10.0 | 0.00 | 0.00 | 0.00 | 67 | 1012.0 |
| 20260906075055 | 77 | 141 | 5.0 | 10.0 | 0.00 | 0.00 | 0.00 | 66 | 1011.9 |
| 20260906074509 | 77 | 115 | 5.0 | 10.0 | 0.00 | 0.00 | 0.00 | 66 | 1011.9 |
| 20260906074023 | 77 | 124 | 7.0 | 10.0 | 0.00 | 0.00 | 0.00 | 66 | 1011.9 |
| 20260906073529 | 77 | 121 | 6.0 | 10.0 | 0.00 | 0.00 | 0.00 | 66 | 1011.9 |
| 20260906073043 | 77 | 119 | 6.0 | 11.0 | 0.00 | 0.00 | 0.00 | 66 | 1011.8 |
| 20260906072553 | 77 | 117 | 7.0 | 11.0 | 0.00 | 0.00 | 0.00 | 66 | 1011.8 |
| 20260906072003 | 77 | 116 | 6.0 | 10.0 | 0.00 | 0.00 | 0.00 | 66 | 1012.0 |
| 20260906071514 | 77 | 104 | 6.0 | 10.0 | 0.00 | 0.00 | 0.00 | 66 | 1012.1 |
| 20260906071024 | 77 | 109 | 6.0 | 12.0 | 0.00 | 0.00 | 0.00 | 65 | 1012.1 |
| 20260906070533 | 77 | 115 | 8.0 | 12.0 | 0.00 | 0.00 | 0.00 | 66 | 1012.0 |
| 20260906070007 | 78 | 131 | 7.0 | 12.0 | 0.00 | 0.00 | 0.00 | 65 | 1012.1 |
| 20260906065517 | 78 | 113 | 7.0 | 11.0 | 0.00 | 0.00 | 0.00 | 65 | 1012.1 |
| 20260906065024 | 78 | 122 | 6.0 | 10.0 | 0.00 | 0.00 | 0.00 | 65 | 1012.1 |
| 20260906064543 | 78 | 112 | 6.0 | 10.0 | 0.00 | 0.00 | 0.00 | 65 | 1012.2 |
| 20260906064051 | 78 | 117 | 6.0 | 11.0 | 0.00 | 0.00 | 0.00 | 65 | 1012.2 |
| 20260906063502 | 78 | 134 | 7.0 | 11.0 | 0.00 | 0.00 | 0.00 | 65 | 1012.2 |
| 20260906063015 | 78 | 128 | 6.0 | 10.0 | 0.00 | 0.00 | 0.00 | 65 | 1012.3 |
| 20260906062522 | 78 | 124 | 6.0 | 12.0 | 0.00 | 0.00 | 0.00 | 65 | 1012.2 |
| 20260906062033 | 78 | 126 | 8.0 | 12.0 | 0.00 | 0.00 | 0.00 | 65 | 1012.1 |
| 20260906061541 | 78 | 127 | 6.0 | 11.0 | 0.00 | 0.00 | 0.00 | 65 | 1012.1 |
| 20260906061052 | 78 | 124 | 8.0 | 12.0 | 0.00 | 0.00 | 0.00 | 65 | 1012.1 |
| 20260906060557 | 78 | 105 | 7.0 | 14.0 | 0.00 | 0.00 | 0.00 | 64 | 1012.1 |
| 20260906060037 | 79 | 115 | 9.0 | 14.0 | 0.00 | 0.00 | 0.00 | 64 | 1012.1 |
| 20260906055544 | 79 | 124 | 8.0 | 12.0 | 0.00 | 0.00 | 0.00 | 64 | 1012.1 |
| 20260906055053 | 79 | 121 | 8.0 | 12.0 | 0.00 | 0.00 | 0.00 | 64 | 1012.2 |
| 20260906054511 | 79 | 129 | 7.0 | 12.0 | 0.00 | 0.00 | 0.00 | 64 | 1012.2 |
| 20260906054019 | 79 | 117 | 9.0 | 13.0 | 0.00 | 0.00 | 0.00 | 64 | 1012.2 |
| 20260906053522 | 79 | 122 | 8.0 | 13.0 | 0.00 | 0.00 | 0.00 | 64 | 1012.1 |
| 20260906053043 | 79 | 108 | 8.0 | 11.0 | 0.00 | 0.00 | 0.00 | 64 | 1012.3 |
| 20260906052544 | 79 | 120 | 6.0 | 10.0 | 0.00 | 0.00 | 0.00 | 64 | 1012.3 |
| 20260906052040 | 79 | 98 | 6.0 | 10.0 | 0.00 | 0.00 | 0.00 | 64 | 1012.2 |
| 20260906051548 | 79 | 109 | 6.0 | 11.0 | 0.00 | 0.00 | 0.00 | 64 | 1012.2 |
| 20260906051057 | 79 | 129 | 7.0 | 11.0 | 0.00 | 0.00 | 0.00 | 64 | 1012.1 |
| 20260906050502 | 79 | 102 | 7.0 | 9.0 | 0.00 | 0.00 | 0.00 | 64 | 1012.2 |
| 20260906050122 | 79 | 103 | 7.0 | 9.0 | 0.00 | 0.00 | 0.00 | 64 | 1012.1 |
| 20260906045508 | 79 | 120 | 7.0 | 9.0 | 0.00 | 0.00 | 0.00 | 64 | 1012.2 |
| 20260906045018 | 79 | 108 | 6.0 | 9.0 | 0.00 | 0.00 | 0.00 | 64 | 1012.2 |
| 20260906044526 | 79 | 109 | 6.0 | 9.0 | 0.00 | 0.00 | 0.00 | 64 | 1012.3 |
| 20260906044033 | 79 | 86 | 5.0 | 9.0 | 0.00 | 0.00 | 0.00 | 64 | 1012.3 |
| 20260906043544 | 79 | 117 | 6.0 | 12.0 | 0.00 | 0.00 | 0.00 | 63 | 1012.4 |
| 20260906043050 | 79 | 98 | 6.0 | 12.0 | 0.00 | 0.00 | 0.00 | 63 | 1012.5 |
| 20260906042558 | 79 | 120 | 5.0 | 9.0 | 0.00 | 0.00 | 0.00 | 64 | 1012.5 |
| 20260906042004 | 79 | 90 | 5.0 | 8.0 | 0.00 | 0.00 | 0.00 | 64 | 1012.5 |
| 20260906041542 | 79 | 67 | 4.0 | 8.0 | 0.00 | 0.00 | 0.00 | 64 | 1012.5 |
| 20260906041054 | 79 | 96 | 3.0 | 6.0 | 0.00 | 0.00 | 0.00 | 64 | 1012.6 |
| 20260906040559 | 79 | 90 | 3.0 | 5.0 | 0.00 | 0.00 | 0.00 | 63 | 1012.6 |
| 20260906040016 | 79 | 111 | 3.0 | 6.0 | 0.00 | 0.00 | 0.00 | 63 | 1012.7 |
| 20260906035522 | 80 | 116 | 3.0 | 8.0 | 0.00 | 0.00 | 0.00 | 63 | 1012.6 |
| 20260906035030 | 80 | 110 | 3.0 | 8.0 | 0.00 | 0.00 | 0.00 | 63 | 1012.6 |
| 20260906034511 | 80 | 89 | 2.0 | 5.0 | 0.00 | 0.00 | 0.00 | 64 | 1012.6 |
| 20260906034018 | 80 | 111 | 2.0 | 5.0 | 0.00 | 0.00 | 0.00 | 64 | 1012.5 |
| 20260906033527 | 80 | 113 | 2.0 | 5.0 | 0.00 | 0.00 | 0.00 | 64 | 1012.4 |
| 20260906033051 | 80 | 96 | 2.0 | 6.0 | 0.00 | 0.00 | 0.00 | 63 | 1012.4 |
| 20260906032552 | 80 | 75 | 3.0 | 6.0 | 0.00 | 0.00 | 0.00 | 64 | 1012.3 |
| 20260906032100 | 80 | 82 | 3.0 | 6.0 | 0.00 | 0.00 | 0.00 | 64 | 1012.3 |
| 20260906032002 | 80 | 85 | 2.0 | 7.0 | 0.00 | 0.00 | 0.00 | 64 | 1012.3 |
| 20260906031514 | 80 | 101 | 3.0 | 7.0 | 0.00 | 0.00 | 0.00 | 64 | 1012.1 |
| 20260906031024 | 80 | 90 | 2.0 | 8.0 | 0.00 | 0.00 | 0.00 | 64 | 1012.1 |
| 20260906030528 | 80 | 112 | 3.0 | 9.0 | 0.00 | 0.00 | 0.00 | 64 | 1011.9 |
| 20260906030042 | 80 | 107 | 3.0 | 9.0 | 0.00 | 0.00 | 0.00 | 64 | 1011.8 |
| 20260906025558 | 81 | 80 | 3.0 | 8.0 | 0.00 | 0.00 | 0.00 | 64 | 1011.7 |
| 20260906025002 | 81 | 107 | 3.0 | 8.0 | 0.00 | 0.00 | 0.00 | 64 | 1011.7 |
| 20260906024523 | 81 | 95 | 4.0 | 8.0 | 0.00 | 0.00 | 0.00 | 63 | 1011.6 |
| 20260906024024 | 81 | 56 | 5.0 | 10.0 | 0.00 | 0.00 | 0.00 | 63 | 1011.5 |
| 20260906023540 | 81 | 104 | 6.0 | 10.0 | 0.00 | 0.00 | 0.00 | 63 | 1011.4 |
| 20260906023045 | 81 | 79 | 4.0 | 8.0 | 0.00 | 0.00 | 0.00 | 63 | 1011.4 |
| 20260906022556 | 81 | 103 | 5.0 | 11.0 | 0.00 | 0.00 | 0.00 | 63 | 1011.4 |
| 20260906022007 | 82 | 112 | 6.0 | 11.0 | 0.00 | 0.00 | 0.00 | 63 | 1011.3 |
| 20260906021526 | 82 | 85 | 5.0 | 10.0 | 0.00 | 0.00 | 0.00 | 63 | 1011.2 |
| 20260906021031 | 82 | 77 | 4.0 | 9.0 | 0.00 | 0.00 | 0.00 | 63 | 1011.2 |
| 20260906020546 | 82 | 83 | 5.0 | 9.0 | 0.00 | 0.00 | 0.00 | 63 | 1011.1 |
| 20260906020048 | 82 | 105 | 4.0 | 8.0 | 0.00 | 0.00 | 0.00 | 63 | 1011.1 |
| 20260906015550 | 82 | 98 | 3.0 | 9.0 | 0.00 | 0.00 | 0.00 | 63 | 1011.0 |
| 20260906015056 | 82 | 86 | 5.0 | 9.0 | 0.00 | 0.00 | 0.00 | 63 | 1010.9 |
| 20260906014517 | 82 | 89 | 4.0 | 6.0 | 0.00 | 0.00 | 0.00 | 63 | 1010.8 |
| 20260906014019 | 82 | 96 | 4.0 | 6.0 | 0.00 | 0.00 | 0.00 | 63 | 1010.7 |
| 20260906013528 | 82 | 94 | 4.0 | 6.0 | 0.00 | 0.00 | 0.00 | 63 | 1010.7 |
| 20260906013008 | 82 | 109 | 3.0 | 6.0 | 0.00 | 0.00 | 0.00 | 63 | 1010.6 |
| 20260906012518 | 82 | 72 | 3.0 | 6.0 | 0.00 | 0.00 | 0.00 | 63 | 1010.6 |
| 20260906012026 | 82 | 113 | 3.0 | 5.0 | 0.00 | 0.00 | 0.00 | 62 | 1010.5 |
| 20260906011540 | 82 | 96 | 2.0 | 6.0 | 0.00 | 0.00 | 0.00 | 62 | 1010.5 |
| 20260906011050 | 83 | 96 | 3.0 | 6.0 | 0.00 | 0.00 | 0.00 | 62 | 1010.5 |
| 20260906010558 | 83 | 103 | 2.0 | 5.0 | 0.00 | 0.00 | 0.00 | 62 | 1010.5 |
| 20260906010014 | 83 | 90 | 2.0 | 4.0 | 0.00 | 0.00 | 0.00 | 61 | 1010.4 |
| 20260906005527 | 84 | 92 | 2.0 | 5.0 | 0.00 | 0.00 | 0.00 | 61 | 1010.4 |
| 20260906005036 | 84 | 73 | 2.0 | 4.0 | 0.00 | 0.00 | 0.00 | 60 | 1010.4 |
| 20260906004542 | 84 | 85 | 2.0 | 6.0 | 0.00 | 0.00 | 0.00 | 60 | 1010.3 |
| 20260906004054 | 85 | 94 | 2.0 | 6.0 | 0.00 | 0.00 | 0.00 | 59 | 1010.3 |
| 20260906003601 | 85 | 103 | 2.0 | 5.0 | 0.00 | 0.00 | 0.00 | 58 | 1010.3 |
| 20260906003501 | 85 | 94 | 3.0 | 5.0 | 0.00 | 0.00 | 0.00 | 58 | 1010.3 |
| 20260906003012 | 86 | 127 | 3.0 | 5.0 | 0.00 | 0.00 | 0.00 | 58 | 1010.2 |
| 20260906002522 | 86 | 98 | 2.0 | 5.0 | 0.00 | 0.00 | 0.00 | 58 | 1010.3 |
| 20260906002028 | 86 | 84 | 2.0 | 5.0 | 0.00 | 0.00 | 0.00 | 58 | 1010.2 |
| 20260906001539 | 87 | 109 | 2.0 | 5.0 | 0.00 | 0.00 | 0.00 | 57 | 1010.1 |
| 20260906001046 | 87 | 116 | 3.0 | 7.0 | 0.00 | 0.00 | 0.00 | 57 | 1010.2 |
| 20260906000559 | 87 | 108 | 3.0 | 7.0 | 0.00 | 0.00 | 0.00 | 57 | 1010.1 |
| 20260906000013 | 87 | 94 | 4.0 | 7.0 | 0.00 | 0.00 | 0.00 | 56 | 1010.1 |
| 20260905235523 | 87 | 110 | 3.0 | 6.0 | 0.00 | 0.00 | 0.00 | 56 | 1010.1 |
| 20260905235032 | 88 | 111 | 4.0 | 8.0 | 0.00 | 0.00 | 0.00 | 55 | 1010.2 |
| 20260905234533 | 88 | 98 | 4.0 | 10.0 | 0.00 | 0.00 | 0.00 | 55 | 1010.2 |
| 20260905234043 | 89 | 93 | 4.0 | 10.0 | 0.00 | 0.00 | 0.00 | 54 | 1010.2 |
| 20260905233552 | 89 | 115 | 4.0 | 8.0 | 0.00 | 0.00 | 0.00 | 54 | 1010.2 |
| 20260905233012 | 89 | 92 | 5.0 | 7.0 | 0.00 | 0.00 | 0.00 | 54 | 1010.2 |
| 20260905232517 | 89 | 103 | 4.0 | 9.0 | 0.00 | 0.00 | 0.00 | 54 | 1010.2 |
| 20260905232022 | 89 | 110 | 6.0 | 9.0 | 0.00 | 0.00 | 0.00 | 53 | 1010.1 |
| 20260905231538 | 90 | 94 | 4.0 | 12.0 | 0.00 | 0.00 | 0.00 | 52 | 1010.1 |
| 20260905231039 | 90 | 108 | 6.0 | 12.0 | 0.00 | 0.00 | 0.00 | 52 | 1010.0 |
| 20260905230552 | 90 | 124 | 7.0 | 11.0 | 0.00 | 0.00 | 0.00 | 51 | 1010.0 |
| 20260905230008 | 90 | 124 | 5.0 | 12.0 | 0.00 | 0.00 | 0.00 | 51 | 1010.0 |
| 20260905225514 | 90 | 108 | 6.0 | 12.0 | 0.00 | 0.00 | 0.00 | 51 | 1010.0 |
| 20260905225022 | 90 | 83 | 6.0 | 9.0 | 0.00 | 0.00 | 0.00 | 51 | 1010.0 |
| 20260905224538 | 90 | 107 | 7.0 | 9.0 | 0.00 | 0.00 | 0.00 | 51 | 1009.9 |
| 20260905224043 | 90 | 140 | 6.0 | 9.0 | 0.00 | 0.00 | 0.00 | 51 | 1009.9 |
| 20260905223555 | 90 | 97 | 6.0 | 11.0 | 0.00 | 0.00 | 0.00 | 52 | 1009.8 |
| 20260905223005 | 90 | 95 | 7.0 | 11.0 | 0.00 | 0.00 | 0.00 | 51 | 1009.8 |
| 20260905222514 | 90 | 104 | 4.0 | 11.0 | 0.00 | 0.00 | 0.00 | 52 | 1009.7 |
| 20260905222026 | 89 | 101 | 7.0 | 11.0 | 0.00 | 0.00 | 0.00 | 51 | 1009.7 |
| 20260905221542 | 89 | 99 | 7.0 | 13.0 | 0.00 | 0.00 | 0.00 | 52 | 1009.7 |
| 20260905221050 | 89 | 107 | 8.0 | 13.0 | 0.00 | 0.00 | 0.00 | 52 | 1009.7 |
| 20260905220555 | 89 | 92 | 8.0 | 12.0 | 0.00 | 0.00 | 0.00 | 51 | 1009.6 |
| 20260905220010 | 90 | 98 | 7.0 | 13.0 | 0.00 | 0.00 | 0.00 | 51 | 1009.6 |
| 20260905215520 | 89 | 94 | 9.0 | 15.0 | 0.00 | 0.00 | 0.00 | 51 | 1009.6 |
| 20260905215025 | 89 | 129 | 9.0 | 15.0 | 0.00 | 0.00 | 0.00 | 51 | 1009.7 |
| 20260905214540 | 89 | 125 | 9.0 | 13.0 | 0.00 | 0.00 | 0.00 | 51 | 1009.7 |
| 20260905214044 | 89 | 122 | 9.0 | 14.0 | 0.00 | 0.00 | 0.00 | 52 | 1009.7 |
| 20260905213553 | 89 | 167 | 8.0 | 14.0 | 0.00 | 0.00 | 0.00 | 53 | 1009.7 |
| 20260905213009 | 89 | 117 | 7.0 | 13.0 | 0.00 | 0.00 | 0.00 | 52 | 1009.8 |
| 20260905212523 | 89 | 156 | 9.0 | 14.0 | 0.00 | 0.00 | 0.00 | 52 | 1009.7 |
| 20260905212024 | 88 | 124 | 8.0 | 16.0 | 0.00 | 0.00 | 0.00 | 52 | 1009.7 |
| 20260905211536 | 88 | 117 | 11.0 | 16.0 | 0.00 | 0.00 | 0.00 | 52 | 1009.9 |
| 20260905211038 | 88 | 121 | 10.0 | 16.0 | 0.00 | 0.00 | 0.00 | 53 | 1009.9 |
| 20260905210552 | 88 | 141 | 10.0 | 19.0 | 0.00 | 0.00 | 0.00 | 52 | 1010.0 |
| 20260905210010 | 88 | 136 | 13.0 | 19.0 | 0.00 | 0.00 | 0.00 | 51 | 1010.2 |
| 20260905205524 | 88 | 122 | 11.0 | 17.0 | 0.00 | 0.00 | 0.00 | 52 | 1010.3 |
| 20260905205026 | 87 | 89 | 11.0 | 16.0 | 0.00 | 0.00 | 0.00 | 52 | 1010.4 |
| 20260905204535 | 87 | 113 | 11.0 | 16.0 | 0.00 | 0.00 | 0.00 | 50 | 1010.4 |
| 20260905204042 | 87 | 84 | 10.0 | 16.0 | 0.00 | 0.00 | 0.00 | 51 | 1010.5 |
| 20260905203557 | 87 | 107 | 9.0 | 15.0 | 0.00 | 0.00 | 0.00 | 50 | 1010.7 |
| 20260905203016 | 87 | 116 | 11.0 | 17.0 | 0.00 | 0.00 | 0.00 | 51 | 1010.7 |
| 20260905202517 | 86 | 129 | 11.0 | 15.0 | 0.00 | 0.00 | 0.00 | 51 | 1010.8 |
| 20260905202030 | 85 | 127 | 10.0 | 17.0 | 0.00 | 0.00 | 0.00 | 51 | 1011.0 |
| 20260905201542 | 86 | 84 | 11.0 | 17.0 | 0.00 | 0.00 | 0.00 | 51 | 1011.1 |
| 20260905201046 | 86 | 121 | 12.0 | 16.0 | 0.00 | 0.00 | 0.00 | 49 | 1011.2 |
| 20260905200555 | 86 | 115 | 7.0 | 14.0 | 0.00 | 0.00 | 0.00 | 53 | 1011.4 |
| 20260905200002 | 86 | 103 | 7.0 | 14.0 | 0.00 | 0.00 | 0.00 | 51 | 1011.7 |
| 20260905195514 | 86 | 84 | 7.0 | 16.0 | 0.00 | 0.00 | 0.00 | 52 | 1012.0 |
| 20260905195026 | 86 | 92 | 7.0 | 15.0 | 0.00 | 0.00 | 0.00 | 50 | 1012.1 |
| 20260905194537 | 86 | 134 | 7.0 | 14.0 | 0.00 | 0.00 | 0.00 | 50 | 1012.2 |
| 20260905194043 | 86 | 78 | 7.0 | 13.0 | 0.00 | 0.00 | 0.00 | 50 | 1012.2 |
| 20260905193557 | 86 | 69 | 7.0 | 13.0 | 0.00 | 0.00 | 0.00 | 49 | 1012.3 |
| 20260905193005 | 86 | 117 | 5.0 | 11.0 | 0.00 | 0.00 | 0.00 | 48 | 1012.4 |
| 20260905192514 | 86 | 92 | 7.0 | 13.0 | 0.00 | 0.00 | 0.00 | 50 | 1012.6 |
| 20260905192024 | 86 | 63 | 8.0 | 14.0 | 0.00 | 0.00 | 0.00 | 48 | 1012.5 |
| 20260905191533 | 86 | 110 | 8.0 | 14.0 | 0.00 | 0.00 | 0.00 | 48 | 1012.5 |
| 20260905191039 | 86 | 101 | 8.0 | 12.0 | 0.00 | 0.00 | 0.00 | 50 | 1012.6 |
| 20260905190548 | 85 | 77 | 3.0 | 10.0 | 0.00 | 0.00 | 0.00 | 49 | 1012.6 |
| 20260905190004 | 85 | 82 | 6.0 | 15.0 | 0.00 | 0.00 | 0.00 | 46 | 1012.6 |
| 20260905185513 | 85 | 77 | 7.0 | 13.0 | 0.00 | 0.00 | 0.00 | 47 | 1012.9 |
| 20260905185026 | 85 | 54 | 4.0 | 11.0 | 0.00 | 0.00 | 0.00 | 49 | 1013.1 |
| 20260905184532 | 85 | 53 | 5.0 | 15.0 | 0.00 | 0.00 | 0.00 | 48 | 1013.2 |
| 20260905184039 | 85 | 53 | 8.0 | 15.0 | 0.00 | 0.00 | 0.00 | 46 | 1013.1 |
| 20260905183547 | 85 | 90 | 5.0 | 11.0 | 0.00 | 0.00 | 0.00 | 50 | 1013.3 |
| 20260905183102 | 85 | 96 | 5.0 | 15.0 | 0.00 | 0.00 | 0.00 | 48 | 1013.4 |
| 20260905183003 | 85 | 72 | 5.0 | 15.0 | 0.00 | 0.00 | 0.00 | 48 | 1013.4 |
| 20260905182513 | 84 | 82 | 5.0 | 15.0 | 0.00 | 0.00 | 0.00 | 48 | 1013.5 |
| 20260905182020 | 84 | 346 | 7.0 | 13.0 | 0.00 | 0.00 | 0.00 | 48 | 1013.6 |
| 20260905181529 | 84 | 56 | 5.0 | 18.0 | 0.00 | 0.00 | 0.00 | 51 | 1013.6 |
| 20260905181031 | 84 | 77 | 10.0 | 18.0 | 0.00 | 0.00 | 0.00 | 49 | 1013.6 |
| 20260905180544 | 84 | 91 | 8.0 | 18.0 | 0.00 | 0.00 | 0.00 | 51 | 1013.6 |